When you browse on this site, cookies collect data to enhance your experience and personalize the content and advertising you see.
Visit our Privacy Policy to learn more. By continuing to use the site, you agree to this use of cookies and data.

Previsão horária em Tamale

Hoje, 27 Setembro, Domingo

Tempo Temperatura Precipitação Vento Pressão Humidade
00:00 +25°C° 0 mm 1 m/s 741 mmHg 92%
01:00 +25°C° 0 mm 1 m/s 741 mmHg 93%
02:00 +24°C° 0 mm 1 m/s 741 mmHg 94%
03:00 +24°C° 0 mm 1 m/s 741 mmHg 95%
04:00 +24°C° 0 mm 1 m/s 741 mmHg 95%
05:00 +24°C° 0 mm 1 m/s 741 mmHg 95%
06:00 +24°C° 0 mm 1 m/s 741 mmHg 94%
07:00 +26°C° 0 mm 1 m/s 742 mmHg 90%
08:00 +27°C° 0 mm 2 m/s 742 mmHg 86%
09:00 +28°C° 0 mm 2 m/s 743 mmHg 81%
10:00 +29°C° 0.9 mm 2 m/s 742 mmHg 79%
11:00 +30°C° 0.9 mm 2 m/s 742 mmHg 77%
12:00 +31°C° 0.9 mm 2 m/s 742 mmHg 74%
13:00 +31°C° 0.3 mm 2 m/s 741 mmHg 73%
14:00 +31°C° 0.3 mm 2 m/s 740 mmHg 71%
15:00 +31°C° 0.3 mm 2 m/s 740 mmHg 69%
16:00 +30°C° 0.3 mm 1 m/s 740 mmHg 76%
17:00 +28°C° 0.3 mm 1 m/s 740 mmHg 82%
18:00 +27°C° 0.3 mm 1 m/s 741 mmHg 89%
19:00 +27°C° 0 mm 1 m/s 741 mmHg 90%
20:00 +26°C° 0 mm 1 m/s 741 mmHg 91%
21:00 +26°C° 0 mm 1 m/s 742 mmHg 93%
22:00 +25°C° 0.1 mm 1 m/s 742 mmHg 94%
23:00 +25°C° 0.1 mm 1 m/s 742 mmHg 94%

Amanhã, 28 Setembro, Segunda-feira

Tempo Temperatura Precipitação Vento Pressão Humidade
00:00 +25°C° 0.1 mm 1 m/s 742 mmHg 95%
01:00 +25°C° 0 mm 1 m/s 742 mmHg 96%
02:00 +24°C° 0 mm 1 m/s 742 mmHg 96%
03:00 +24°C° 0 mm 1 m/s 742 mmHg 97%
04:00 +24°C° 0 mm 1 m/s 742 mmHg 97%
05:00 +24°C° 0 mm 1 m/s 742 mmHg 97%
06:00 +24°C° 0 mm 1 m/s 742 mmHg 97%
07:00 +25°C° 0 mm 1 m/s 743 mmHg 91%
08:00 +27°C° 0 mm 1 m/s 743 mmHg 85%
09:00 +28°C° 0 mm 1 m/s 743 mmHg 79%
10:00 +29°C° 0 mm 1 m/s 743 mmHg 79%
11:00 +29°C° 0 mm 1 m/s 742 mmHg 78%
12:00 +29°C° 0 mm 1 m/s 742 mmHg 77%
13:00 +30°C° 0 mm 1 m/s 742 mmHg 74%
14:00 +31°C° 0 mm 1 m/s 741 mmHg 71%
15:00 +31°C° 0 mm 1 m/s 740 mmHg 69%
16:00 +30°C° 0 mm 1 m/s 740 mmHg 73%
17:00 +29°C° 0 mm 1 m/s 740 mmHg 78%
18:00 +28°C° 0 mm 1 m/s 740 mmHg 83%
19:00 +27°C° 0 mm 1 m/s 741 mmHg 84%
20:00 +27°C° 0 mm 1 m/s 742 mmHg 84%
21:00 +26°C° 0 mm 1 m/s 742 mmHg 85%
22:00 +26°C° 0.1 mm 1 m/s 742 mmHg 86%
23:00 +26°C° 0.1 mm 1 m/s 742 mmHg 87%

Depois de amanhã, 29 Setembro, Terça-feira

Tempo Temperatura Precipitação Vento Pressão Humidade
00:00 +25°C° 0.1 mm 1 m/s 742 mmHg 88%
01:00 +25°C° 0.1 mm 1 m/s 742 mmHg 89%
02:00 +25°C° 0.1 mm 1 m/s 742 mmHg 89%
03:00 +25°C° 0.1 mm 1 m/s 741 mmHg 90%
04:00 +25°C° 0.3 mm 1 m/s 742 mmHg 91%
05:00 +25°C° 0.3 mm 1 m/s 742 mmHg 93%
06:00 +23°C° 0.3 mm 0 m/s 742 mmHg 94%
07:00 +25°C° 0.1 mm 1 m/s 743 mmHg 94%
08:00 +25°C° 0.1 mm 2 m/s 744 mmHg 93%
09:00 +26°C° 0.1 mm 2 m/s 744 mmHg 93%
10:00 +27°C° 0 mm 2 m/s 744 mmHg 89%
11:00 +28°C° 0 mm 2 m/s 743 mmHg 86%
12:00 +28°C° 0 mm 2 m/s 743 mmHg 83%
13:00 +29°C° 0.1 mm 2 m/s 742 mmHg 80%
14:00 +30°C° 0.1 mm 2 m/s 742 mmHg 76%
15:00 +31°C° 0.1 mm 2 m/s 741 mmHg 73%
16:00 +30°C° 0 mm 2 m/s 741 mmHg 78%
17:00 +29°C° 0 mm 1 m/s 741 mmHg 82%
18:00 +28°C° 0 mm 1 m/s 741 mmHg 87%
19:00 +27°C° 0.4 mm 1 m/s 742 mmHg 90%
20:00 +26°C° 0.4 mm 1 m/s 742 mmHg 92%
21:00 +26°C° 0.4 mm 1 m/s 743 mmHg 95%
22:00 +25°C° 0.3 mm 1 m/s 743 mmHg 95%
23:00 +25°C° 0.3 mm 1 m/s 743 mmHg 96%

30 Setembro, Quarta-feira

Tempo Temperatura Precipitação Vento Pressão Humidade
00:00 +25°C° 0.3 mm 1 m/s 743 mmHg 96%
01:00 +25°C° 0 mm 1 m/s 742 mmHg 96%
02:00 +24°C° 0 mm 1 m/s 742 mmHg 97%
03:00 +24°C° 0 mm 2 m/s 742 mmHg 97%
04:00 +24°C° 0 mm 2 m/s 742 mmHg 97%
05:00 +24°C° 0 mm 2 m/s 742 mmHg 97%
06:00 +24°C° 0 mm 2 m/s 742 mmHg 97%
07:00 +25°C° 0 mm 2 m/s 743 mmHg 94%
08:00 +26°C° 0 mm 2 m/s 743 mmHg 91%
09:00 +27°C° 0 mm 3 m/s 743 mmHg 88%
10:00 +28°C° 0.1 mm 3 m/s 743 mmHg 83%
11:00 +29°C° 0.1 mm 3 m/s 742 mmHg 79%
12:00 +30°C° 0.1 mm 3 m/s 742 mmHg 75%
13:00 +30°C° 0.7 mm 2 m/s 741 mmHg 74%
14:00 +31°C° 0.7 mm 2 m/s 741 mmHg 73%
15:00 +31°C° 0.7 mm 1 m/s 740 mmHg 73%
16:00 +30°C° 0.2 mm 1 m/s 740 mmHg 78%
17:00 +28°C° 0.2 mm 1 m/s 740 mmHg 83%
18:00 +27°C° 0.2 mm 1 m/s 741 mmHg 88%
19:00 +27°C° 0 mm 1 m/s 741 mmHg 90%
20:00 +26°C° 0 mm 1 m/s 742 mmHg 91%
21:00 +26°C° 0 mm 1 m/s 742 mmHg 93%
22:00 +25°C° 0 mm 1 m/s 742 mmHg 94%
23:00 +25°C° 0 mm 1 m/s 742 mmHg 94%

1 Outubro, Quinta-feira

Tempo Temperatura Precipitação Vento Pressão Humidade
00:00 +25°C° 0 mm 1 m/s 742 mmHg 95%
01:00 +25°C° 0.2 mm 1 m/s 741 mmHg 96%
02:00 +25°C° 0.2 mm 1 m/s 741 mmHg 96%
03:00 +24°C° 0.2 mm 1 m/s 741 mmHg 97%
04:00 +24°C° 0.5 mm 1 m/s 741 mmHg 97%
05:00 +24°C° 0.5 mm 1 m/s 741 mmHg 97%
06:00 +24°C° 0.5 mm 1 m/s 741 mmHg 97%
07:00 +25°C° 0.8 mm 1 m/s 742 mmHg 96%
08:00 +25°C° 0.8 mm 1 m/s 742 mmHg 95%
09:00 +25°C° 0.8 mm 1 m/s 743 mmHg 94%
10:00 +26°C° 0.5 mm 1 m/s 742 mmHg 93%
11:00 +26°C° 0.5 mm 1 m/s 742 mmHg 91%
12:00 +26°C° 0.5 mm 2 m/s 741 mmHg 90%
13:00 +27°C° 1.1 mm 2 m/s 741 mmHg 87%
14:00 +28°C° 1.1 mm 2 m/s 740 mmHg 85%
15:00 +28°C° 1.1 mm 3 m/s 740 mmHg 82%
16:00 +27°C° 0.4 mm 2 m/s 740 mmHg 85%
17:00 +26°C° 0.4 mm 1 m/s 740 mmHg 88%
18:00 +25°C° 0.4 mm 1 m/s 740 mmHg 92%
19:00 +25°C° 0 mm 1 m/s 741 mmHg 92%
20:00 +25°C° 0 mm 1 m/s 741 mmHg 93%
21:00 +25°C° 0 mm 1 m/s 742 mmHg 94%
22:00 +24°C° 0 mm 1 m/s 741 mmHg 95%
23:00 +24°C° 0 mm 1 m/s 741 mmHg 95%

2 Outubro, Sexta-feira

Tempo Temperatura Precipitação Vento Pressão Humidade
00:00 +24°C° 0 mm 1 m/s 741 mmHg 96%
01:00 +24°C° 0 mm 1 m/s 741 mmHg 96%
02:00 +24°C° 0 mm 1 m/s 741 mmHg 96%
03:00 +24°C° 0 mm 1 m/s 740 mmHg 96%
04:00 +24°C° 0 mm 1 m/s 741 mmHg 95%
05:00 +24°C° 0 mm 1 m/s 741 mmHg 95%
06:00 +24°C° 0 mm 1 m/s 742 mmHg 95%
07:00 +25°C° 0.1 mm 1 m/s 742 mmHg 93%
08:00 +25°C° 0.1 mm 1 m/s 742 mmHg 91%
09:00 +26°C° 0.1 mm 1 m/s 743 mmHg 89%
10:00 +28°C° 0.2 mm 2 m/s 742 mmHg 82%
11:00 +29°C° 0.2 mm 2 m/s 742 mmHg 75%
12:00 +31°C° 0.2 mm 2 m/s 741 mmHg 69%
13:00 +31°C° 0.4 mm 2 m/s 741 mmHg 70%
14:00 +30°C° 0.4 mm 2 m/s 740 mmHg 71%
15:00 +30°C° 0.4 mm 2 m/s 739 mmHg 73%
16:00 +29°C° 0.7 mm 1 m/s 740 mmHg 78%
17:00 +28°C° 0.7 mm 1 m/s 740 mmHg 83%
18:00 +27°C° 0.7 mm 1 m/s 740 mmHg 89%
19:00 +26°C° 0.3 mm 1 m/s 741 mmHg 89%
20:00 +26°C° 0.3 mm 1 m/s 741 mmHg 90%
21:00 +26°C° 0.3 mm 1 m/s 742 mmHg 90%
22:00 +25°C° 0.5 mm 1 m/s 742 mmHg 91%
23:00 +25°C° 0.5 mm 1 m/s 742 mmHg 92%
Mostrar mais